Terminal Aerodrome Forecast
Issued by NWS

Home | Current Version | Previous Version | Text Only | Print | Product List | Glossary On
Versions: 1 2 3 4 5 6 7 8 9 10 11 12 13 14 15
000
FTUS45 KVEF 201700
TAFEED
TAF
KEED 201732Z 2018/2118 VRB05KT P6SM FEW120
     FM202100 19010G20KT P6SM VCTS SCT080CB BKN120
     FM210400 22008KT P6SM SCT120=

USA.gov is the U.S. government's official web portal to all federal, state and local government web resources and services.